User: anonymous   Login
Location: Unspecified
(0.0000°N, 0.0000°E)
Time: 12:02:11
(UTC+00:00)
Language:

CUTE 1.7 + AOD 2 - Orbit

View from above orbital plane
View from above orbital plane
View from above satellite
View from above satellite

Ground track
Ground track

The orbit data is extracted from the following two-line orbital elements,

1 32785U 08021C   17294.80546414 +.00000335 +00000-0 +42038-4 0  9993
2 32785 097.5599 313.2555 0014612 107.1717 253.1101 14.87981768513655
Epoch (UTC): 21 October 2017 19:19:52
Eccentricity: 0.0014612
inclination: 97.5599°
perigee height: 594 km
apogee height: 614 km
right ascension of ascending node: 313.2555°
argument of perigee: 107.1717°
revolutions per day: 14.87981768
mean anomaly at epoch: 253.1101°
orbit number at epoch: 51365

The dashed part of the orbit path shows where the satellite is in the earth's shadow,  

DLR